Location: Harwich
(41.7160°N, 69.9939°W)
Time: 09:21:43
(UTC+02:00)

A-11 Canister half - Pass Details

Date: 23 February 2024
Orbit: 1513 x 1686 km, 47.2° (Epoch: 24 April)

Event Time Altitude Azimuth Distance (km) Brightness Sun altitude
Exits shadow 10:18:23 36° 282° (WNW) 2,431 9.5 -24.3°
Maximum altitude 10:23:05 66° 352° (N) 1,772 9.2 -23.4°
Drops below altitude 10° 10:32:50 10° 74° (ENE) 3,820 12.2 -21.6°
Sets 10:35:56 0° 78° (ENE) 4,782 13.1 -21.0°
